x

8461490 - New London, Ct (nlnc3) Weather Station

12:54 - Mon 27th Apr 2015 All times are EDT. -4 hours from GMT.

  • Wind
    6mph, 11mph gusts
  • Sea Temp 45°f
  • Air Temp 58°f
  • Sea Pressure 1001.1mb
  • 8461490 - New London, Ct
  • 8461490 - New London, Ct

More Historic Weather Station data

Upgrade to MSW Pro to gain access to the past 30 days of data for over 8000 Wavebouys and Weather Stations around the globe.

Join Pro

Comparision Forecast

View Surf forecast
   
lun. 04/27 12:54 6 11 mph 1001.1mb 45f 58f
12:48 8 11 mph 1001.1mb 45f 57f
12:42 8 13 mph 1001.1mb 45f 57f
12:36 10 15 mph 1001.2mb 46f 56f
12:30 11 21 mph 1001.3mb 46f 58f
12:24 9 13 mph 1001.3mb 46f 58f
12:18 10 20 mph 1001.4mb 46f 58f
12:12 7 13 mph 1001.4mb 46f 59f
12:06  -  10 mph 1001.5mb 46f 59f
12:00 3 14 mph 1001.5mb 46f 58f
11:54 3 7 mph 1001.6mb 46f 57f
11:48 2 11 mph 1001.7mb 46f 58f
11:42 5 10 mph 1001.7mb 46f 56f
11:36 1 8 mph 1001.9mb 45f 57f
11:30 2 9 mph 1002mb 46f 56f
11:24 3 11 mph 1002mb 46f 56f
11:18 5 9 mph 1002mb 46f 55f
11:12 5 8 mph 1002.2mb 46f 54f
11:06 5 10 mph 1002.2mb 46f 55f
11:00 5 10 mph 1002.2mb 46f 53f
10:54 7 11 mph 1002.3mb 45f 53f
10:48 5 11 mph 1002.3mb 45f 53f
10:42 8 14 mph 1002.3mb 45f 53f
10:36 7 14 mph 1002.4mb 45f 53f
10:30 8 11 mph 1002.3mb 45f 53f
10:24 7 13 mph 1002.3mb 44f 54f
10:18 8 14 mph 1002.3mb 44f 53f
10:12 10 15 mph 1002.2mb 44f 53f
10:06 9 18 mph 1002.2mb 44f 53f
10:00 3 11 mph 1002.1mb 44f 53f
9:54 9 16 mph 1002.1mb 44f 53f
9:48 6 16 mph 1002.1mb 44f 54f
9:42 8 17 mph 1002.1mb 44f 53f
9:36 10 16 mph 1002.1mb 44f 53f
9:30 7 14 mph 1002.1mb 44f 54f
9:24 8 15 mph 1002.2mb 44f 54f
9:18 8 11 mph 1002.2mb 44f 54f
9:12 3 14 mph 1002.2mb 44f 54f
9:06 9 17 mph 1002.2mb 44f 53f
9:00 5 15 mph 1002.3mb 44f 53f
8:54 8 14 mph 1002.3mb 44f 53f
8:48 7 14 mph 1002.3mb 44f 53f
8:42 5 9 mph 1002.4mb 44f 53f
8:36 5 8 mph 1002.4mb 44f 53f
8:30 5 9 mph 1002.4mb 43f 52f
8:24 2 8 mph 1002.3mb 43f 53f
8:18 3 8 mph 1002.3mb 43f 52f
8:12 5 6 mph 1002.3mb 43f 52f
8:06  -  5 mph 1002.4mb 43f 51f
8:00  -  2 mph 1002.4mb 43f 50f
7:54 2 6 mph 1002.4mb 43f 50f
7:48 3 7 mph 1002.4mb 43f 50f
7:42 1 5 mph 1002.4mb 43f 50f
7:36  -  3 mph 1002.4mb 43f 50f
7:30  -  mph 1002.4mb 43f 50f
7:24  -  mph 1002.3mb 43f 49f
7:18  -  mph 1002.4mb 43f 49f
7:12  -  mph 1002.4mb 43f 49f
7:06  -  2 mph 1002.4mb 43f 49f
7:00  -  mph 1002.4mb 43f 49f
6:54  -  mph 1002.4mb 43f 49f
6:48  -  mph 1002.4mb 43f 49f
6:42  -  mph 1002.4mb 43f 49f
6:36  -  mph 1002.4mb 43f 49f
6:30  -  mph 1002.2mb 43f 49f
6:24  -  mph 1002.2mb 43f 49f
6:18  -  mph 1002.2mb 43f 49f
6:12  -  mph 1002.1mb 43f 49f
6:06  -  mph 1002.1mb 43f 49f
6:00  -  mph 1002.2mb 43f 49f
5:54  -  mph 1002.2mb 43f 49f
5:48  -  mph 1002.1mb 43f 49f
5:42  -  mph 1002.1mb 43f 49f
5:36  -  mph 1002.1mb 43f 49f
5:30  -  mph 1002mb 43f 49f
5:24  -  mph 1002mb 43f 49f
5:18  -  mph 1001.9mb 43f 49f
5:12  -  mph 1001.9mb 43f 50f
5:06  -  3 mph 1001.9mb 43f 50f
5:00 2 6 mph 1001.9mb 43f 50f
4:54 3 7 mph 1001.8mb 43f 50f
4:48 6 9 mph 1001.8mb 43f 50f
4:42 5 10 mph 1001.8mb 43f 50f
4:36  -  3 mph 1001.8mb 43f 50f
4:30  -  5 mph 1001.8mb 43f 50f
4:24  -  3 mph 1001.8mb 43f 50f
4:18  -  3 mph 1001.9mb 43f 50f
4:12  -  5 mph 1001.9mb 43f 50f
4:06 2 6 mph 1002mb 43f 50f
4:00  -  mph 1002mb 43f 50f
3:54  -  3 mph 1002mb 43f 50f
3:48 2 6 mph 1002.1mb 43f 51f
3:42  -  3 mph 1002.1mb 43f 51f
3:36  -  mph 1002.1mb 43f 51f
3:30  -  mph 1002.1mb 43f 51f
3:24  -  3 mph 1002.2mb 43f 51f
3:18 2 7 mph 1002.2mb 43f 51f
3:12 2 7 mph 1002.1mb 44f 51f
3:06  -  7 mph 1002.2mb 44f 51f
3:00 3 7 mph 1002.2mb 44f 51f
2:54 2 7 mph 1002.2mb 44f 51f
2:48 2 8 mph 1002.2mb 44f 51f
2:42 2 7 mph 1002.2mb 44f 51f
2:36 3 7 mph 1002.2mb 44f 51f
2:30 5 7 mph 1002.3mb 44f 51f
2:24 1 6 mph 1002.3mb 44f 51f
2:18 3 6 mph 1002.3mb 44f 52f
2:12 2 6 mph 1002.4mb 44f 52f
2:06 5 8 mph 1002.4mb 44f 52f
2:00  -  5 mph 1002.4mb 45f 52f
1:54  -  5 mph 1002.5mb 45f 52f
1:48  -  6 mph 1002.5mb 45f 52f
1:42 2 7 mph 1002.5mb 45f 52f
1:36 1 5 mph 1002.6mb 45f 52f
1:30  -  5 mph 1002.6mb 45f 52f
1:24  -  5 mph 1002.6mb 45f 52f
1:18  -  mph 1002.6mb 45f 52f
1:12  -  mph 1002.6mb 45f 52f
1:06  -  3 mph 1002.6mb 45f 52f
1:00 1 5 mph 1002.6mb 45f 52f
12:54  -  3 mph 1002.6mb 45f 52f
12:48  -  5 mph 1002.6mb 45f 52f
12:42 2 6 mph 1002.6mb 46f 52f
12:36  -  mph 1002.6mb 46f 52f
12:30  -  7 mph 1002.6mb 46f 53f
12:24  -  mph 1002.7mb 46f 52f
12:18  -  2 mph 1002.7mb 46f 53f
12:12  -  mph 1002.6mb 46f 53f
12:06  -  mph 1002.6mb 46f 53f
12:00  -  mph 1002.6mb 46f 53f
dim. 04/26 11:54  -  5 mph 1002.6mb 46f 53f
11:48  -  mph 1002.6mb 46f 53f
11:42  -  3 mph 1002.6mb 45f 53f
11:36  -  mph 1002.6mb 45f 53f
11:30  -  1 mph 1002.6mb 45f 53f
11:24  -  5 mph 1002.6mb 45f 53f
11:18  -  2 mph 1002.6mb 45f 53f
11:12  -  2 mph 1002.7mb 45f 53f
11:06  -  8 mph 1002.7mb 45f 53f
11:00  -  1 mph 1002.7mb 45f 53f
10:54  -  5 mph 1002.8mb 45f 53f
10:48  -  2 mph 1002.8mb 45f 53f
10:42  -  2 mph 1002.8mb 45f 53f
10:36  -  3 mph 1002.8mb 45f 53f
10:30  -  mph 1002.8mb 45f 53f
10:24  -  3 mph 1002.8mb 45f 53f
10:18  -  mph 1002.8mb 44f 53f
10:12  -  1 mph 1002.8mb 44f 53f
10:06  -  1 mph 1002.9mb 44f 53f
10:00  -  1 mph 1002.9mb 44f 53f
9:54  -  mph 1002.9mb 44f 53f
9:48  -  2 mph 1002.9mb 44f 53f
9:42  -  mph 1003mb 44f 53f
9:36  -  mph 1003mb 44f 53f
9:30  -  mph 1003mb 44f 53f
9:24  -  mph 1003mb 43f 53f
9:18  -  mph 1003mb 44f 53f
9:12  -  mph 1003mb 44f 53f
9:06  -  mph 1003mb 44f 53f
9:00  -  mph 1003mb 44f 53f
8:54  -  mph 1003mb 44f 53f
8:48  -  mph 1003mb 44f 53f
8:42  -  mph 1003mb 44f 53f
8:36  -  mph 1003mb 44f 54f
8:30  -  mph 1003mb 44f 54f
8:24  -  mph 1003mb 44f 54f
8:18  -  mph 1003mb 44f 54f
8:12  -  mph 1003mb 44f 54f
8:06  -  mph 1003mb 44f 54f
8:00  -  mph 1003mb 44f 54f
7:54  -  mph 1003mb 44f 54f
7:48  -  mph 1002.9mb 43f 55f
7:42  -  2 mph 1002.9mb 43f 55f
7:36  -  2 mph 1002.8mb 44f 55f
7:30  -  6 mph 1002.8mb 44f 55f
7:24  -  5 mph 1002.7mb 44f 55f
7:18  -  3 mph 1002.6mb 44f 56f
7:12  -  7 mph 1002.6mb 44f 56f
7:06 3 8 mph 1002.5mb 44f 56f
7:00 5 7 mph 1002.5mb 44f 56f
6:54 2 8 mph 1002.5mb 44f 56f
6:48 2 10 mph 1002.5mb 43f 56f
6:42 6 9 mph 1002.5mb 43f 56f
6:36 6 10 mph 1002.5mb 43f 56f
6:30 3 8 mph 1002.5mb 43f 57f
6:24 6 8 mph 1002.5mb 43f 57f
6:18 6 10 mph 1002.5mb 43f 57f
6:12 5 8 mph 1002.5mb 43f 57f
6:06  -  2 mph 1002.6mb 43f 56f
6:00  -  mph 1002.6mb 43f 56f
5:54  -  6 mph 1002.6mb 43f 55f
5:48 2 6 mph 1002.5mb 43f 55f
5:42  -  6 mph 1002.5mb 43f 55f
5:36 1 5 mph 1002.5mb 43f 55f
5:30  -  3 mph 1002.5mb 43f 56f
5:24  -  6 mph 1002.5mb 43f 56f
5:18 3 7 mph 1002.5mb 43f 56f
5:12 5 8 mph 1002.5mb 43f 56f
5:06 3 8 mph 1002.5mb 43f 55f
5:00 5 10 mph 1002.5mb 43f 55f
4:54 6 10 mph 1002.5mb 43f 55f
4:48 7 9 mph 1002.5mb 43f 55f
4:42 5 11 mph 1002.4mb 43f 55f
4:36 5 9 mph 1002.5mb 43f 55f
4:30 3 6 mph 1002.5mb 43f 55f
4:24 6 9 mph 1002.6mb 43f 55f
4:18 5 9 mph 1002.6mb 43f 55f
4:12 6 10 mph 1002.7mb 43f 55f
4:06 6 10 mph 1002.7mb 43f 55f
4:00 6 10 mph 1002.6mb 43f 55f
3:54 7 9 mph 1002.7mb 43f 54f
3:48 7 11 mph 1002.7mb 43f 54f
3:42 8 13 mph 1002.7mb 43f 54f
3:36 7 10 mph 1002.7mb 43f 54f
3:30 7 10 mph 1002.7mb 43f 54f
3:24 9 11 mph 1002.7mb 43f 54f
3:18 10 14 mph 1002.7mb 43f 53f
3:12 7 11 mph 1002.7mb 43f 53f
3:06 8 13 mph 1002.7mb 43f 53f
3:00 9 14 mph 1002.7mb 43f 53f
2:54 9 14 mph 1002.8mb 43f 53f
2:48 8 13 mph 1002.8mb 43f 54f
2:42 8 11 mph 1002.8mb 43f 54f
2:36 6 10 mph 1002.8mb 43f 55f
2:30 8 10 mph 1002.9mb 43f 54f
2:24 6 11 mph 1002.9mb 43f 54f
2:18 8 11 mph 1002.9mb 43f 54f
2:12 8 13 mph 1003mb 43f 53f
2:06 9 11 mph 1003mb 43f 53f
2:00 9 11 mph 1002.9mb 43f 53f
1:54 10 13 mph 1002.9mb 43f 53f
1:48 7 10 mph 1002.9mb 43f 54f
1:42 9 14 mph 1003mb 43f 53f
1:36 8 14 mph 1003mb 43f 53f
1:30 10 13 mph 1003mb 42f 53f
1:24 6 11 mph 1003mb 43f 53f
1:18 8 11 mph 1003mb 43f 53f
1:12 9 13 mph 1003mb 43f 53f
1:06 8 10 mph 1003.1mb 43f 52f
1:00 8 13 mph 1003.1mb 43f 52f
12:54 5 10 mph 1003.1mb 43f 53f
12:48 7 11 mph 1003.2mb 43f 53f
12:42 3 8 mph 1003.1mb 43f 54f
12:36 7 8 mph 1003.1mb 43f 53f
12:30 1 6 mph 1003.1mb 44f 55f
12:24 5 9 mph 1003.1mb 44f 56f
12:18 6 10 mph 1003.2mb 45f 56f
12:12 3 5 mph 1003.3mb 45f 56f
12:06 2 10 mph 1003.4mb 45f 55f
12:00 2 8 mph 1003.4mb 45f 55f
11:54 2 7 mph 1003.5mb 45f 55f
11:48 2 6 mph 1003.5mb 44f 55f
11:42 2 6 mph 1003.6mb 44f 55f
11:36 3 7 mph 1003.7mb 45f 56f
11:30 1 6 mph 1003.7mb 45f 54f
11:24 2 7 mph 1003.7mb 45f 53f
11:18 6 8 mph 1003.7mb 45f 54f
11:12 2 6 mph 1003.8mb 45f 53f
11:06  -  6 mph 1003.8mb 44f 53f
11:00  -  mph 1004mb 44f 53f
10:54  -  7 mph 1004mb 45f 53f
10:48 1 5 mph 1004.1mb 45f 53f
10:42 3 7 mph 1004.2mb 45f 53f
10:36 2 6 mph 1004.2mb 45f 52f
10:30 2 9 mph 1004.2mb 45f 52f
10:24 3 7 mph 1004.2mb 44f 52f
10:18  -  2 mph 1004.3mb 44f 52f
10:12 2 5 mph 1004.3mb 45f 52f
10:06  -  5 mph 1004.4mb 45f 51f
10:00  -  3 mph 1004.4mb 44f 51f
9:54  -  5 mph 1004.5mb 44f 50f
9:48 2 6 mph 1004.5mb 44f 51f
9:42  -  3 mph 1004.5mb 44f 51f
9:36  -  mph 1004.4mb 44f 50f
9:30  -  mph 1004.5mb 44f 49f
9:24  -  mph 1004.6mb 43f 49f
9:18  -  mph 1004.6mb 43f 49f
9:12  -  mph 1004.5mb 43f 49f
9:06  -  mph 1004.5mb 43f 48f
9:00  -  mph 1004.5mb 43f 47f
8:54  -  mph 1004.5mb 43f 47f
8:48  -  mph 1004.6mb 43f 46f
8:42  -  mph 1004.6mb 43f 46f
8:36  -  mph 1004.6mb 43f 45f
8:30  -  1 mph 1004.6mb 43f 45f
8:24 2 5 mph 1004.6mb 43f 44f
8:18 2 3 mph 1004.7mb 43f 43f
8:12 3 5 mph 1004.7mb 43f 43f
8:06 3 6 mph 1004.7mb 43f 42f
8:00 3 5 mph 1004.7mb 43f 42f
7:54 3 6 mph 1004.8mb 43f 41f
7:48 5
mph
1004.9mb 43f 41f
7:42 5 6 mph 1004.9mb 43f 40f
7:36 5 6 mph 1004.9mb 44f 40f
7:30 5 8 mph 1005mb 43f 40f
7:24 6 7 mph 1005.1mb 43f 40f
7:18 3 7 mph 1005.1mb 43f 40f
7:12 3 6 mph 1005.1mb 43f 40f
7:06 5 6 mph 1005.1mb 43f 40f
7:00 3 6 mph 1005.1mb 43f 40f
6:54 3 6 mph 1005.1mb 43f 40f
6:48 2 5 mph 1005.1mb 43f 41f
6:42 2 5 mph 1005.1mb 43f 40f
6:36  -  2 mph 1005mb 43f 40f
6:30  -  3 mph 1005mb 43f 40f
6:24 1 5 mph 1004.9mb 43f 40f
6:18 2 5 mph 1004.8mb 43f 40f
6:12 3 5 mph 1004.8mb 43f 40f
6:06 2 5 mph 1004.8mb 43f 40f
6:00 2 5 mph 1004.7mb 43f 40f
5:54 2 5 mph 1004.7mb 43f 40f
5:48 2 5 mph 1004.6mb 43f 40f
5:42  -  mph 1004.5mb 43f 40f
5:36  -  mph 1004.4mb 43f 40f
5:30  -  mph 1004.4mb 43f 40f
5:24  -  mph 1004.3mb 43f 40f
5:18  -  mph 1004.2mb 44f 40f
5:12  -  mph 1004.1mb 44f 40f
5:06  -  mph 1004mb 44f 40f
5:00  -  mph 1004mb 44f 40f
4:54  -  mph 1004mb 44f 40f
4:48  -  mph 1004.1mb 44f 41f
4:42  -  mph 1004.1mb 44f 41f
4:36  -  mph 1004.1mb 44f 41f
4:30  -  mph 1004.1mb 44f 41f
4:24  -  2 mph 1004mb 44f 42f
4:18  -  2 mph 1004.1mb 44f 42f
4:12 2 5 mph 1004.1mb 44f 42f
4:06 2 5 mph 1004.1mb 44f 42f
4:00 3 5 mph 1004.2mb 44f 42f
3:54 2 5 mph 1004.2mb 44f 42f
3:48 3 6 mph 1004.2mb 44f 43f
3:42  -  mph 1004.3mb 44f 43f
3:36  -  2 mph 1004.3mb 44f 43f
3:30  -  mph 1004.2mb 44f 43f
3:24  -  1 mph 1004.3mb 44f 43f
3:18 2 6 mph 1004.2mb 44f 44f
3:12 3 5 mph 1004.3mb 44f 44f
3:06 3 6 mph 1004.3mb 44f 44f
3:00 3 6 mph 1004.3mb 44f 44f
2:54 5 6 mph 1004.3mb 44f 44f
2:48 3 6 mph - 44f 44f
2:42 3 5 mph - 44f 44f
2:36 3 6 mph - 44f 45f
2:30 1 6 mph 1004.4mb 44f 45f
2:24 3 6 mph 1004.4mb 44f 45f
2:18 3 6 mph 1004.5mb 44f 45f
2:12 3 5 mph 1004.6mb 44f 46f
2:06  -  5 mph 1004.6mb 44f 46f
2:00  -  mph 1004.7mb 44f 46f
1:54  -  mph 1004.7mb 44f 46f
1:48  -  3 mph 1004.8mb 44f 46f
1:42  -  3 mph 1004.9mb 44f 47f
1:36 1 5 mph 1004.9mb 44f 47f
1:30  -  5 mph 1004.9mb 44f 47f
1:24 1 5 mph 1004.9mb 44f 47f
1:18 1 3 mph 1004.9mb 45f 47f
1:12  -  2 mph 1004.9mb 44f 47f
1:06  -  5 mph 1005mb 45f 47f
1:00 2 5 mph 1005mb 45f 47f
12:54  -  6 mph 1005mb 45f 47f
12:48 5 7 mph 1005mb 45f 47f
12:42 3 8 mph 1005mb 45f 47f
12:36 6 8 mph 1005mb 45f 47f
12:30 7 8 mph 1005mb 45f 47f
12:24 5 7 mph 1005mb 45f 47f
12:18 3 6 mph 1004.9mb 46f 47f
12:12 5 7 mph 1004.9mb 46f 47f
12:06 6 7 mph 1004.9mb 46f 47f
12:00  -  3 mph 1004.9mb 46f 46f
sam. 04/25 11:54  -  mph 1005mb 46f 46f
11:48  -  mph 1004.9mb 46f 46f
11:42  -  mph 1005mb 46f 46f
11:36  -  mph 1005mb 46f 46f
11:30  -  mph 1005mb 47f 47f
11:24  -  mph 1005mb 47f 47f
11:18  -  mph 1005mb 47f 47f
11:12  -  mph 1005mb 47f 47f
11:06  -  mph 1005mb 46f 47f
11:00  -  mph 1004.9mb 46f 47f
10:54  -  mph 1005mb 46f 47f
10:48  -  mph 1005mb 46f 48f
10:42  -  mph 1005mb 46f 48f
10:36  -  mph 1005mb 46f 48f
10:30  -  mph 1005mb 46f 48f
10:24  -  mph 1005.1mb 46f 49f
10:18  -  5 mph 1005.1mb 46f 49f
10:12 2 5 mph 1005.2mb 46f 49f
10:06 5 7 mph 1005.3mb 45f 49f
10:00 5 7 mph 1005.3mb 45f 49f
9:54 5 6 mph 1005.3mb 45f 49f
9:48  -  mph 1005.3mb 45f 49f
9:42  -  mph 1005.3mb 46f 49f
9:36  -  mph 1005.4mb 45f 49f
9:30  -  5 mph 1005.3mb 46f 49f
9:24 1 5 mph 1005.3mb 45f 50f
9:18 1 5 mph 1005.4mb 45f 50f
9:12 3 6 mph 1005.4mb 45f 50f
9:06 3 8 mph 1005.4mb 46f 50f
9:00 3 6 mph 1005.4mb 46f 50f
8:54 5 6 mph 1005.3mb 46f 50f
8:48 2 5 mph 1005.3mb 46f 50f
8:42 3 5 mph 1005.3mb 45f 50f
8:36 5 6 mph 1005.2mb 45f 50f
8:30  -  6 mph 1005.1mb 44f 51f
8:24 5 6 mph 1005.1mb 44f 51f
8:18 1 3 mph 1005mb 44f 53f
8:12 1 3 mph 1005.1mb 44f 53f
8:06  -  mph 1005mb 45f 53f
8:00  -  mph 1004.9mb 44f 53f
7:54  -  mph 1004.8mb 44f 53f
7:48  -  3 mph 1004.7mb 44f 53f
7:42  -  3 mph 1004.7mb 44f 53f
7:36  -  6 mph 1004.5mb 44f 54f
7:30 1 3 mph 1004.5mb 44f 55f
7:24 1 3 mph 1004.4mb 44f 54f
7:18  -  mph 1004.3mb 44f 54f
7:12  -  2 mph 1004.3mb 44f 54f
7:06  -  5 mph 1004.2mb 44f 54f
7:00 5 6 mph 1004.2mb 44f 54f
6:54 1 9 mph 1004.3mb 44f 54f
6:48 7 10 mph 1004.2mb 44f 54f
6:42 7 13 mph 1004.2mb 44f 54f
6:36 6 10 mph 1004.2mb 44f 54f
6:30 6 8 mph 1004.1mb 44f 55f
6:24 2 9 mph 1004mb 44f 55f
6:18 8 13 mph 1004mb 44f 55f
6:12 3 8 mph 1004.1mb 44f 56f
6:06 5 11 mph 1004.1mb 44f 56f
6:00 9 14 mph 1004.1mb 44f 55f
5:54 8 15 mph 1004.2mb 44f 54f
5:48 11 16 mph 1004.1mb 44f 55f
5:42 10 14 mph 1004.1mb 44f 55f
5:36 9 17 mph 1004.1mb 44f 55f
5:30 9 15 mph 1004.1mb 44f 55f
5:24 10 16 mph 1004.1mb 44f 55f
5:18 7 10 mph 1004.1mb 44f 55f
5:12 6 13 mph 1004.3mb 44f 54f
5:06 8 15 mph 1004.3mb 44f 55f
5:00 9 14 mph 1004.3mb 44f 54f
4:54 10 14 mph 1004.3mb 44f 54f
4:48 3 7 mph 1004.2mb 44f 57f
4:42 3 9 mph 1004.1mb 44f 57f
4:36 8 13 mph 1004.2mb 44f 55f
4:30 9 14 mph 1004.1mb 43f 54f
4:24 6 13 mph 1004.1mb 43f 54f
4:18 9 11 mph 1004.2mb 43f 53f
4:12 7 13 mph 1004.2mb 43f 54f
4:06 8 15 mph 1004.2mb 43f 53f
4:00 10 17 mph 1004.3mb 43f 53f
3:54 9 14 mph 1004.3mb 43f 53f
3:48 7 15 mph 1004.4mb 43f 54f
3:42 9 16 mph 1004.4mb 43f 54f
3:36 14 18 mph 1004.6mb 43f 52f
3:30 6 10 mph 1004.8mb 43f 54f
3:24 5 16 mph 1004.9mb 43f 52f
3:18 10 16 mph 1004.9mb 43f 53f
3:12 3 14 mph 1005mb 43f 53f
3:06 10 14 mph 1005.2mb 43f 52f
3:00 14 18 mph 1005.2mb 43f 51f
2:54 11 20 mph 1005.3mb 43f 51f
2:48 11 16 mph 1005.4mb 43f 51f
2:42 9 22 mph 1005.5mb 43f 51f
2:36 14 20 mph 1005.5mb 43f 51f
2:30 9 17 mph 1005.6mb 43f 50f
2:24 14 18 mph 1005.8mb 43f 50f
2:18 14 18 mph 1005.9mb 43f 49f
2:12 13 17 mph 1005.9mb 43f 50f
2:06 15 20 mph 1005.9mb 43f 50f
2:00 11 17 mph 1005.9mb 43f 51f
1:54 13 18 mph 1006mb 42f 50f
1:48 10 15 mph 1006mb 43f 51f
1:42 11 16 mph 1006.1mb 42f 51f
1:36 10 17 mph 1006.3mb 42f 51f
1:30 10 16 mph 1006.2mb 43f 50f
1:24 13 17 mph 1006.5mb 43f 51f
1:18 14 23 mph 1006.5mb 43f 50f
1:12 13 16 mph 1006.6mb 43f 50f
1:06 10 17 mph 1006.6mb 43f 51f
1:00 13 20 mph 1006.7mb 44f 50f
12:54 14 20 mph 1006.8mb 44f 48f
12:48 11 20 mph 1006.8mb 43f 50f
12:42 10 15 mph 1006.9mb 43f 50f
12:36 9 15 mph 1007.1mb 42f 49f
12:30 11 15 mph 1007.1mb 42f 49f
12:24 5 9 mph 1007.2mb 42f 52f
12:18 7 13 mph 1007.3mb 42f 53f
12:12 6 9 mph 1007.2mb 42f 53f
12:06 5 10 mph 1007.2mb 42f 52f
12:00 3 8 mph 1007.2mb 42f 52f
11:54 6 14 mph 1007.4mb 42f 51f
11:48 7 11 mph 1007.5mb 43f 51f
11:42 6 14 mph 1007.6mb 43f 51f
11:36 8 11 mph 1007.7mb 43f 50f
11:30 7 16 mph 1007.8mb 44f 50f
11:24 6 11 mph 1007.8mb 44f 49f
11:18 5 14 mph 1007.9mb 44f 50f
11:12 8 13 mph 1007.9mb 45f 49f
11:06 7 10 mph 1008mb 45f 49f
11:00 9 14 mph 1008mb 46f 49f
10:54 6 10 mph 1008.1mb 45f 49f
10:48 5 10 mph 1008.1mb 46f 48f
10:42 5 8 mph 1008.1mb 46f 48f
10:36 2 8 mph 1008.1mb 46f 47f
10:30 3 9 mph 1008.3mb 46f 47f
10:24 7 13 mph 1008.3mb 46f 46f
10:18 7 11 mph 1008.3mb 46f 46f
10:12 5 10 mph 1008.4mb 46f 46f
10:06 7 10 mph 1008.5mb 46f 45f
10:00 6 10 mph 1008.6mb 46f 45f
9:54 7 10 mph 1008.6mb 46f 45f
9:48 6 9 mph 1008.5mb 46f 45f
9:42 5 10 mph 1008.6mb 46f 45f
9:36 8 13 mph 1008.5mb 45f 44f
9:30 8 14 mph 1008.6mb 46f 44f
9:24 6 11 mph 1008.7mb 45f 44f
9:18 6 15 mph 1008.8mb 46f 43f
9:12 6 11 mph 1008.7mb 45f 43f
9:06 6 13 mph 1008.9mb 45f 43f
9:00 6 9 mph 1008.9mb 45f 42f
8:54 3 7 mph 1009mb 45f 43f
8:48 5 10 mph 1009.2mb 45f 42f
8:42 6 8 mph 1009.3mb 45f 42f
8:36 2 14 mph 1009.5mb 45f 41f
8:30 6 15 mph 1009.6mb 44f 40f
8:24 6 11 mph 1009.7mb 44f 40f
8:18 7 15 mph 1009.7mb 44f 39f
8:12 7 15 mph 1009.7mb 44f 39f
8:06 5 11 mph 1009.7mb 44f 39f
8:00 8 13 mph 1009.7mb 44f 39f
7:54 8 13 mph 1009.8mb 44f 38f
7:48 6 14 mph 1010mb 44f 38f
7:42 5 11 mph 1009.9mb 44f 38f
7:36 6 13 mph 1010mb 44f 38f
7:30 2 10 mph 1010.1mb 43f 38f
7:24 3 9 mph 1010.2mb 43f 37f
7:18 6 10 mph 1010.2mb 43f 37f
7:12 7 10 mph 1010.1mb 43f 37f
7:06 6 10 mph 1010.2mb 43f 37f
7:00 6 11 mph 1010.2mb 43f 36f
6:54 5 9 mph 1010.3mb 43f 36f
6:48 3 11 mph 1010.4mb 43f 36f
6:42 5 10 mph 1010.3mb 43f 35f
6:36 5 10 mph 1010.3mb 43f 35f
6:30 5 9 mph 1010.2mb 43f 35f
6:24 6 8 mph 1010.2mb 43f 34f
6:18 3 7 mph 1010.1mb 43f 34f
6:12 5 8 mph 1010.1mb 43f 34f
6:06 3 7 mph 1010.1mb 43f 33f
6:00 3 7 mph 1010.1mb 43f 33f
5:54 3 6 mph 1010.1mb 43f 33f
5:48 5 7 mph 1010.1mb 43f 33f
5:42 5 7 mph 1010mb 43f 33f
5:36 5 8 mph 1010mb 43f 34f
5:30 3 7 mph 1009.9mb 42f 33f
5:24 2 7 mph 1009.8mb 42f 34f
5:18 5 8 mph 1009.7mb 42f 34f
5:12 5 8 mph 1009.6mb 42f 34f
5:06 2 6 mph 1009.6mb 42f 34f
5:00 5 9 mph 1009.5mb 42f 34f
4:54 7 9 mph 1009.5mb 42f 34f
4:48 5 8 mph 1009.5mb 43f 34f
4:42 5 8 mph 1009.5mb 43f 34f
4:36 3 6 mph 1009.5mb 43f 34f
4:30 5 8 mph 1009.4mb 43f 34f
4:24 5 6 mph 1009.3mb 43f 34f
4:18 3 6 mph 1009.3mb 43f 35f
4:12 3 7 mph 1009.3mb 42f 35f
4:06 3 6 mph 1009.2mb 42f 35f
4:00  -  3 mph 1009.3mb 42f 35f
3:54 2 5 mph 1009.2mb 42f 35f
3:48 1 2 mph 1009.3mb 42f 35f
3:42  -  3 mph 1009.3mb 42f 35f
3:36  -  5 mph 1009.4mb 42f 35f
3:30  -  2 mph 1009.4mb 42f 35f
3:24  -  3 mph 1009.5mb 42f 35f
3:18  -  3 mph 1009.5mb 42f 35f
3:12 2 5 mph 1009.6mb 42f 35f
3:06  -  2 mph 1009.7mb 42f 35f
3:00  -  2 mph 1009.8mb 42f 35f
2:54  -  3 mph 1009.7mb 42f 35f
2:48  -  3 mph 1009.7mb 42f 35f
2:42 3 6 mph 1009.7mb 42f 35f
2:36 2 6 mph 1009.6mb 42f 36f
2:30 2 6 mph 1009.6mb 42f 36f
2:24 1 6 mph 1009.5mb 42f 36f
2:18 2 5 mph 1009.6mb - 36f
2:12  -  5 mph 1009.6mb - 36f
2:06 2 5 mph 1009.7mb - 36f
2:00 3 5 mph 1009.7mb 42f 36f
1:54 3 5 mph 1009.7mb 43f 36f
1:48 1 3 mph 1009.7mb 43f 36f
1:42 1 5 mph 1009.7mb 43f 37f
1:36  -  2 mph 1009.7mb 43f 36f
1:30  -  3 mph 1009.7mb 43f 37f
1:24 1 5 mph 1009.7mb 43f 37f
1:18 3 6 mph 1009.8mb 42f 37f
1:12 3 8 mph 1009.8mb 42f 37f
1:06 5 9 mph 1009.8mb 43f 37f
1:00 6 8 mph 1009.8mb 43f 37f
12:54 3 7 mph 1009.8mb 43f 37f
12:48 5 7 mph 1010mb 43f 38f
12:42 5 8 mph 1010.1mb 43f 38f
12:36 6 10 mph 1010.1mb 42f 38f
12:30 5 13 mph 1010.2mb 42f 38f
12:24 7 9 mph 1010.3mb 42f 38f
12:18 5 14 mph 1010.2mb 42f 38f
12:12 6 9 mph 1010.1mb 42f 38f
12:06 7 13 mph 1010mb 42f 38f
12:00 6 9 mph 1010mb 43f 38f
ven. 04/24 11:54 7 14 mph 1010.1mb 44f 38f
11:48 6 11 mph 1010.1mb 45f 38f
11:42 6 10 mph 1010.1mb 45f 38f
11:36 6 10 mph 1010.1mb 46f 38f
11:30  -  6 mph 1010.2mb 45f 39f
11:24  -  2 mph 1010.1mb 45f 39f
11:18  -  3 mph 1010.1mb 46f 39f
11:12  -  10 mph 1010.2mb 46f 39f
11:06 6 9 mph 1010.3mb 46f 39f
11:00 5 14 mph 1010.2mb 46f 39f
10:54 3 14 mph 1010.4mb 46f 39f
10:48 5 11 mph 1010.5mb 46f 39f
10:42 7 11 mph 1010.4mb 46f 39f
10:36 6 11 mph 1010.4mb 46f 40f
10:30 6 10 mph 1010.3mb 47f 40f
10:24 6 9 mph 1010.4mb 46f 40f
10:18 6 8 mph 1010.3mb 46f 40f
10:12 7 18 mph 1010.3mb 46f 40f
10:06 7 14 mph 1010.2mb 46f 40f
10:00 6 13 mph 1010.3mb 47f 40f
9:54 8 14 mph 1010.3mb 48f 40f
9:48 6 10 mph 1010.3mb 48f 40f
9:42 6 9 mph 1010.3mb 48f 40f
9:36 7 10 mph 1010.2mb 48f 40f
9:30 7 13 mph 1010.3mb 48f 40f
9:24 5 15 mph 1010.2mb 47f 40f
9:18 6 14 mph 1010.1mb 47f 40f
9:12 7 13 mph 1010.1mb 47f 40f
9:06 7 10 mph 1010mb 47f 40f
9:00 6 11 mph 1010mb 47f 40f
8:54 2 14 mph 1010mb 46f 40f
8:48 9 17 mph 1010mb 46f 41f
8:42 6 13 mph 1010mb 46f 41f
8:36 5 10 mph 1009.9mb 46f 41f
8:30 6 10 mph 1009.8mb 47f 41f
8:24 5 10 mph 1009.7mb 47f 41f
8:18 6 10 mph 1009.6mb 47f 41f
8:12 7 11 mph 1009.6mb 47f 41f
8:06 7 13 mph 1009.5mb 47f 41f
8:00 8 15 mph 1009.3mb 47f 41f
7:54 5 10 mph 1009.3mb 47f 41f
7:48 7 15 mph 1009.2mb 47f 42f
7:42 6 9 mph 1009.2mb 47f 42f
7:36 6 13 mph 1009.1mb 46f 42f
7:30 2 13 mph 1009.1mb 46f 42f
7:24 7 16 mph 1009.1mb 46f 42f
7:18 9 18 mph 1009mb 46f 42f
7:12 7 17 mph 1009mb 47f 43f
7:06 7 18 mph 1009mb 47f 43f
7:00 9 21 mph 1008.9mb 46f 43f
6:54 11 18 mph 1008.8mb 47f 43f
6:48 7 11 mph 1008.7mb 46f 44f
6:42 6 15 mph 1008.6mb 46f 44f
6:36 7 11 mph 1008.5mb 46f 44f
6:30 7 13 mph 1008.5mb 46f 44f
6:24 5 14 mph 1008.4mb 46f 45f
6:18 6 16 mph 1008.4mb 45f 44f
6:12 9 16 mph 1008.3mb 45f 44f
6:06 7 18 mph 1008.3mb 45f 45f
6:00 8 15 mph 1008.3mb 45f 45f
5:54 10 21 mph 1008.3mb 46f 45f
5:48 7 22 mph 1008.1mb 46f 46f
5:42 7 22 mph 1008mb 45f 46f
5:36 11 18 mph 1008mb 45f 46f
5:30 6 18 mph 1008mb 45f 46f
5:24 6 13 mph 1008mb 45f 46f
5:18 7 13 mph 1008mb 46f 45f
5:12 8 14 mph 1008mb 46f 45f
5:06 8 15 mph 1007.9mb 45f 45f
5:00 8 23 mph 1007.8mb 45f 45f
4:54 10 18 mph 1007.8mb 44f 45f
4:48 8 17 mph 1007.7mb 44f 45f
4:42 13 21 mph 1007.6mb 44f 45f
4:36 7 16 mph 1007.5mb 45f 46f
4:30 11 17 mph 1007.4mb 45f 45f
4:24 8 11 mph 1007.5mb 44f 46f
4:18 7 11 mph 1007.4mb 44f 46f
4:12 6 17 mph 1007.4mb 44f 46f
4:06 11 20 mph 1007.5mb 44f 45f
4:00 9 14 mph 1007.4mb 44f 46f
3:54 9 15 mph 1007.3mb 43f 46f
3:48 9 16 mph 1007.2mb 43f 46f
3:42 8 11 mph 1007.2mb 43f 46f
3:36 6 16 mph 1007.2mb 43f 46f
3:30 10 16 mph 1007.2mb 43f 45f
3:24 9 18 mph 1007.1mb 44f 45f
3:18 8 14 mph 1007mb 44f 46f
3:12 8 16 mph 1007mb 44f 46f
3:06 8 16 mph 1006.9mb 43f 46f
3:00 10 20 mph 1006.9mb 43f 46f
2:54 10 18 mph 1007mb 43f 46f
2:48 8 16 mph 1006.9mb 43f 47f
2:42 10 21 mph 1006.9mb 43f 47f
2:36 11 17 mph 1006.9mb 43f 46f
2:30 10 20 mph 1006.8mb 43f 47f
2:24 8 20 mph 1006.8mb 43f 47f
2:18 9 17 mph 1006.9mb 43f 47f
2:12 10 20 mph 1006.9mb 43f 46f
2:06 8 14 mph 1006.9mb 43f 46f
2:00 3 17 mph 1007mb 43f 47f
1:54 9 17 mph 1007mb 43f 47f
1:48 9 15 mph 1007mb 43f 47f
1:42 7 15 mph 1007mb 43f 46f
1:36 8 15 mph 1007mb 44f 47f
1:30 7 16 mph 1006.9mb 44f 47f
1:24 8 18 mph 1007mb 44f 48f
1:18 10 18 mph 1007mb 44f 47f
1:12 11 18 mph 1007mb 44f 47f
1:06 7 13 mph 1007mb 44f 47f
1:00 8 13 mph 1007mb 44f 47f
12:54 6 13 mph 1007.1mb 45f 48f
12:48 6 11 mph 1007.1mb 45f 47f
12:42 11 20 mph 1007.1mb 44f 47f
12:36 8 13 mph 1007.1mb 44f 47f
12:30 7 14 mph 1007.1mb 44f 47f
12:24 6 14 mph 1007.2mb 44f 48f
12:18 7 17 mph 1007.1mb 45f 48f
12:12 8 16 mph 1007.1mb 45f 47f
12:06 8 14 mph 1007.2mb 45f 46f
12:00 8 14 mph 1007.2mb 45f 47f
11:54 5 11 mph 1007.3mb 45f 47f
11:48 5 16 mph 1007.4mb 46f 47f
11:42 6 13 mph 1007.5mb 46f 46f
11:36 8 14 mph 1007.5mb 47f 45f
11:30 3 14 mph 1007.5mb 47f 46f
11:24 11 15 mph 1007.5mb 47f 45f
11:18 8 14 mph 1007.5mb 45f 46f
11:12 5 15 mph 1007.5mb 46f 46f
11:06 7 14 mph 1007.5mb 46f 45f
11:00 6 11 mph 1007.6mb 47f 44f
10:54 7 11 mph 1007.6mb 47f 45f
10:48 6 14 mph 1007.6mb 47f 44f
10:42 7 15 mph 1007.8mb 47f 44f
10:36 8 14 mph 1007.7mb 47f 44f
10:30 6 17 mph 1007.8mb 48f 44f
10:24 7 13 mph 1007.8mb 48f 44f
10:18 7 15 mph 1007.9mb 49f 44f
10:12 7 13 mph 1007.9mb 49f 44f
10:06 9 18 mph 1007.9mb 49f 43f
10:00 7 14 mph 1007.8mb 49f 44f
9:54 5 14 mph 1007.9mb 49f 44f
9:48 6 14 mph 1008mb 49f 43f
9:42 8 13 mph 1008.1mb 49f 43f
9:36 7 14 mph 1008.1mb 49f 43f
9:30 8 15 mph 1008.1mb 49f 43f
9:24 8 17 mph 1008.1mb 49f 42f
9:18 11 17 mph 1008.1mb 49f 42f
9:12 9 21 mph 1008.2mb 49f 42f
9:06 9 14 mph 1008.1mb 48f 42f
9:00 6 13 mph 1008.1mb 48f 42f
8:54 7 15 mph 1008.1mb 49f 42f
8:48 8 15 mph 1008.2mb 49f 41f
8:42 9 16 mph 1008.1mb 49f 41f
8:36 3 15 mph 1008.2mb 49f 42f
8:30 6 13 mph 1008.2mb 49f 42f
8:24 8 14 mph 1008.2mb 49f 41f
8:18 6 16 mph 1008.2mb 49f 41f
8:12 8 11 mph 1008.3mb 49f 41f
8:06 8 11 mph 1008.3mb 48f 41f
8:00 8 11 mph 1008.3mb 48f 41f
7:54 5 14 mph 1008.3mb 48f 41f
7:48 7 14 mph 1008.3mb 48f 41f
7:42 5 9 mph 1008.3mb 48f 41f
7:36 3 9 mph 1008.3mb 48f 41f
7:30 10 16 mph 1008.3mb 48f 40f
7:24 2 7 mph 1008.3mb 48f 41f
7:18 1 9 mph 1008.3mb 48f 40f
7:12 3 6 mph 1008.3mb 48f 40f
7:06 2 9 mph 1008.3mb 47f 40f
7:00 2 9 mph 1008.3mb 47f 40f
6:54 3 7 mph 1008.2mb 47f 40f
6:48 5 8 mph 1008.2mb 47f 39f
6:42  -  mph 1008.2mb 46f 39f
6:36  -  3 mph 1008.1mb 46f 39f
6:30  -  6 mph 1008.1mb 46f 39f
6:24  -  5 mph 1008mb 46f 38f
6:18  -  5 mph 1008mb 47f 38f
6:12  -  5 mph 1007.9mb 46f 37f
6:06  -  1 mph 1007.8mb 46f 37f
6:00  -  3 mph 1007.7mb 46f 37f
5:54  -  5 mph 1007.7mb 46f 37f
5:48  -  3 mph - 46f 37f
5:42  -  7 mph - 46f 38f
5:36  -  8 mph - 46f 38f
5:30 7 10 mph - - -
5:24 6 11 mph - - -
5:18 5 10 mph - 46f 38f
5:12 3 7 mph - 46f 38f
5:06 2 7 mph - 45f 38f
5:00 1 9 mph 1007.2mb 45f 38f
4:54 3 10 mph 1007.2mb 45f 39f
4:48 3 11 mph 1007.2mb 45f 39f
4:42 2 8 mph 1007.2mb 45f 39f
4:36 5 13 mph 1007.2mb 44f 39f
4:30 5 15 mph 1007.2mb 44f 39f
4:24 7 13 mph 1007.2mb 44f 39f
4:18 3 10 mph 1007.3mb 44f 39f
4:12 3 9 mph 1007.3mb 44f 39f
4:06 5 8 mph 1007.3mb 44f 39f
4:00 5 8 mph 1007.3mb 43f 39f
3:54 2 7 mph 1007.3mb 43f 39f
3:48 1 8 mph 1007.3mb 43f 39f
3:42 7 15 mph 1007.3mb 43f 39f
3:36 5 14 mph 1007.3mb 43f 39f
3:30 6 13 mph 1007.3mb 43f 39f
3:24 7 16 mph 1007.3mb 43f 39f
3:18 8 14 mph 1007.2mb 43f 39f
3:12 2 9 mph 1007.2mb 43f 39f
3:06 6 11 mph 1007.2mb 43f 39f
3:00 9 13 mph 1007.2mb 43f 39f
2:54 2 11 mph 1007.2mb 43f 39f
2:48 8 11 mph 1007.2mb 43f 39f
2:42 6 11 mph 1007.2mb 43f 39f
2:36 3 9 mph 1007.2mb 43f 39f
2:30 3 9 mph 1007.2mb 43f 39f
2:24 5 10 mph 1007.2mb 43f 39f
2:18 6 14 mph 1007.1mb 43f 39f
2:12 1 13 mph 1007.2mb 43f 39f
2:06 6 20 mph 1007.1mb 43f 39f
2:00 9 16 mph 1007.1mb 43f 39f
1:54 8 14 mph 1007.1mb 43f 39f
1:48 3 14 mph 1007.1mb 43f 39f
1:42 10 17 mph 1007.1mb 43f 40f
1:36 11 21 mph 1007.1mb 43f 40f
1:30 3 14 mph 1007.1mb 43f 40f
1:24 5 13 mph 1007.2mb 43f 40f
1:18 8 14 mph 1007.2mb 43f 40f
1:12 1 13 mph 1007.2mb 43f 40f
1:06 8 13 mph 1007.3mb 43f 40f
1:00 2 9 mph 1007.3mb 43f 40f
12:54 6 14 mph 1007.3mb 43f 40f
12:48 5 13 mph 1007.2mb 43f 40f
12:42 6 13 mph 1007.3mb 43f 40f
12:36 5 14 mph 1007.3mb 43f 40f
12:30 5 8 mph 1007.3mb 43f 39f
12:24 5 8 mph 1007.3mb 44f 39f
12:18 3 8 mph 1007.3mb 44f 40f
12:12 3 10 mph 1007.3mb 44f 39f
12:06 3 9 mph 1007.3mb 44f 39f
12:00 3 8 mph 1007.3mb 44f 39f
jeu. 04/23 11:54 1 6 mph 1007.2mb 43f 39f
11:48  -  5 mph 1007.2mb 43f 39f
11:42 1 7 mph 1007.2mb 44f 39f
11:36  -  8 mph 1007.2mb 44f 39f
11:30  -  9 mph 1007.1mb 44f 39f
11:24 2 7 mph 1007mb 44f 39f
11:18  -  6 mph 1007.1mb 45f 39f
11:12  -  7 mph 1007.1mb 45f 39f
11:06  -  6 mph 1007.2mb 46f 39f
11:00  -  7 mph 1007.2mb 45f 39f
10:54 2 8 mph 1007.2mb 46f 39f
10:48 6 8 mph 1007.1mb 46f 39f
10:42  -  6 mph 1007.1mb 47f 40f
10:36 3 9 mph 1007.1mb 47f 40f
10:30 3 9 mph 1007.1mb 47f 40f
10:24 7 13 mph 1007.1mb 47f 40f
10:18 8 11 mph 1007mb 48f 40f
10:12 5 13 mph 1007.1mb 49f 40f
10:06 8 14 mph 1007mb 48f 40f
10:00 9 13 mph 1007mb 48f 40f
9:54 3 13 mph 1007mb 49f 40f
9:48 6 13 mph 1006.9mb 49f 40f
9:42 6 10 mph 1006.9mb 50f 40f
9:36 5 8 mph 1006.9mb 49f 40f
9:30 6 15 mph 1006.9mb 50f 40f
9:24 5 10 mph 1006.9mb 49f 40f
9:18 6 10 mph 1006.8mb 49f 40f
9:12 3 8 mph 1006.8mb 49f 40f
9:06 6 9 mph 1006.7mb 50f 40f
9:00 2 10 mph 1006.6mb 49f 41f
8:54 3 10 mph 1006.5mb 49f 40f
8:48 6 9 mph 1006.4mb 49f 40f
8:42  -  1 mph 1006.3mb 49f 40f
8:36  -  5 mph 1006.1mb 49f 40f
8:30  -  2 mph 1006mb 49f 40f
8:24  -  3 mph 1006mb 49f 40f
8:18 1 7 mph 1005.9mb 49f 40f
8:12  -  6 mph 1005.9mb 49f 40f
8:06 1 7 mph 1005.9mb 49f 40f
8:00 5 9 mph 1005.8mb 49f 40f
7:54 3 7 mph 1005.7mb 49f 40f
7:48  -  7 mph 1005.6mb 49f 40f
7:42 6 10 mph 1005.6mb 50f 40f
7:36  -  6 mph 1005.6mb 50f 40f
7:30  -  7 mph 1005.6mb 50f 40f
7:24 1 7 mph 1005.5mb 50f 40f
7:18 5 9 mph 1005.4mb 50f 39f
7:12 7 10 mph 1005.5mb 50f 39f
7:06 7 11 mph 1005.4mb 49f 40f
7:00 8 14 mph 1005.5mb 49f 40f
6:54 11 17 mph 1005.5mb 49f 40f
6:48 13 22 mph 1005.5mb 49f 42f
6:42 10 20 mph 1005.1mb 49f 44f
6:36 9 15 mph 1004.9mb 48f 45f
6:30 10 17 mph 1004.6mb 49f 45f
6:24 6 13 mph 1004.4mb 49f 46f
6:18 6 10 mph 1004.3mb 49f 46f
6:12 3 13 mph 1004.2mb 49f 47f
6:06 6 16 mph 1004mb 49f 48f
6:00 13 20 mph 1003.8mb 48f 48f
5:54 9 18 mph 1003.7mb 47f 48f
5:48 13 18 mph 1003.7mb 47f 48f
5:42 9 21 mph 1003.7mb 48f 49f
5:36 3 11 mph 1003.5mb 48f 49f